[[{"header":{"parameterUnit":"m.s-1","parameterCategory":1,"la1":30.2991,"la2":30.254,"lo1":-89.0895,"lo2":-89.0444,"dy":0.0017,"dx":0.0017,"nx":28,"ny":28,"refTime":"2023-10-21T21:00:00:Z","depth":0,"parameterNumber":2,"parameterNumberName":"U-component_of_WINDS"},"data":[0,0,0,0,0,0,0,0,0,0,0,0,0,0,0,0,0,0,0,0,0,0,0,0,0,0,0,0,0,0,0,0,0,0,0,0,0,0,0,0,0,0,0,0,0,0,0,0,0,0,0,0,0,0,0,0,0,0,-1.7186,-1.7185,0,-1.7115,-1.7114,-1.7114,-1.6985,-1.6983,-1.698,-1.6978,-1.6909,-1.6909,-1.691,0,0,0,0,0,0,0,0,0,0,0,0,0,-1.7212,-1.7212,-1.7186,-1.7185,-1.7184,-1.7115,-1.7114,-1.7113,-1.6986,-1.6983,-1.698,-1.6977,-1.6909,-1.6909,-1.691,0,0,0,0,0,0,0,0,0,0,0,0,0,-1.7177,-1.7212,-1.7186,-1.7112,-1.7104,-1.7115,-1.7114,-1.7113,-1.6986,-1.6982,-1.6979,-1.6975,-1.6909,-1.6909,-1.691,-1.6989,0,0,-1.6912,-1.6912,0,0,0,0,0,0,0,0,-1.7179,-1.7176,-1.7124,-1.7117,-1.7109,-1.7055,-1.7098,-1.7071,-1.6987,-1.7031,-1.6978,-1.6973,-1.6961,-1.6957,-1.6952,-1.6985,-1.6982,-1.6912,-1.6913,-1.6913,-1.6913,0,0,0,0,0,0,0,-1.7182,-1.7179,-1.7158,-1.7123,-1.7114,-1.7083,-1.7074,-1.7093,-1.7018,-1.7027,-1.7018,-1.7011,-1.6956,-1.6952,-1.6949,-1.6981,-1.6912,-1.6913,-1.6913,-1.6914,-1.7075,-1.7079,0,0,0,0,0,0,-1.7195,-1.7182,-1.716,-1.7156,-1.7135,-1.7085,-1.7075,-1.7076,-1.7017,-1.7005,-1.7014,-1.7005,-1.6952,-1.6949,-1.6947,-1.7034,-1.6913,-1.6914,-1.6914,-1.7071,-1.7076,-1.708,0,0,0,0,0,0,-1.7196,-1.7194,-1.7163,-1.7166,-1.716,-1.7089,-1.7091,-1.7077,-1.7072,-1.7007,-1.6994,-1.7023,-1.6949,-1.6946,-1.6979,-1.703,-1.6914,-1.6915,-1.7067,-1.7073,-1.7078,-1.7211,0,0,0,0,0,0,-1.7197,-1.7195,-1.7224,-1.7168,-1.716,-1.7196,-1.7094,-1.7078,-1.7073,-1.7061,-1.7012,-1.7001,-1.6946,-1.6978,-1.6979,-1.7029,-1.6915,-1.7062,-1.7069,-1.7076,-1.7201,-1.722,-1.7236,0,0,0,0,0,-1.7199,-1.7265,-1.7226,-1.7224,-1.7194,-1.7199,-1.7195,-1.713,-1.7078,-1.7106,-1.7065,-1.7002,-1.7024,-1.6983,-1.6983,-1.7033,-1.7058,-1.7067,-1.7075,-1.7193,-1.7216,-1.7236,0,0,0,0,0,0,-1.733,-1.7256,-1.7212,-1.7262,-1.7238,-1.7177,-1.7211,-1.7156,-1.7147,-1.7136,-1.7056,-1.7047,-1.709,-1.7065,-1.702,-1.7106,-1.7031,-1.704,-1.7121,-1.7142,-1.7159,-1.7165,-1.6916,0,0,0,0,0,-1.7365,-1.7374,-1.7309,-1.736,-1.7349,-1.7283,-1.7283,-1.7234,-1.7207,-1.7196,-1.7157,-1.7133,-1.7134,-1.7137,-1.7134,-1.7197,-1.7184,-1.7232,-1.7249,-1.7264,-1.7273,-1.7304,-1.7324,-1.7108,-1.7108,-1.7108,0,0,-1.7437,-1.7398,-1.7409,-1.7385,-1.736,-1.7373,-1.7275,-1.7292,-1.7301,-1.7199,-1.7227,-1.7198,-1.7166,-1.7214,-1.7233,-1.7194,-1.7329,-1.7275,-1.7287,-1.7288,-1.7315,-1.7335,-1.7353,-1.7114,-1.7113,-1.7112,0,0,-1.7574,-1.7546,-1.7584,-1.7561,-1.7525,-1.748,-1.7489,-1.7437,-1.7413,-1.744,-1.7364,-1.7373,-1.7377,-1.7357,-1.7348,-1.7478,-1.742,-1.7479,-1.7571,-1.7602,-1.7619,-1.7633,-1.7679,-1.7697,-1.7488,-1.7489,-1.7489,0,-1.7669,-1.7683,-1.7611,-1.7633,-1.7625,-1.7532,-1.757,-1.7552,-1.7518,-1.7515,-1.7471,-1.7474,-1.7446,-1.7488,-1.7519,-1.7515,-1.7523,-1.7484,-1.7622,-1.7636,-1.7649,-1.7692,-1.7709,-1.7496,-1.7495,-1.7494,-1.7494,0,-1.7801,-1.7812,-1.7848,-1.7815,-1.7811,-1.7842,-1.7775,-1.778,-1.7732,-1.7692,-1.7721,-1.7684,-1.7672,-1.7679,-1.7633,-1.7714,-1.7691,-1.7636,-1.7559,-1.7678,-1.7717,-1.7733,-1.7507,-1.7504,-1.7502,-1.75,0,0,-1.8019,-1.7946,-1.796,-1.7944,-1.7897,-1.7905,-1.7932,-1.7919,-1.7924,-1.7904,-1.7924,-1.7929,-1.7878,-1.7867,-1.7818,-1.7846,-1.795,-1.7787,-1.7785,-1.7818,-1.8038,-1.8079,-1.8099,-1.7911,-1.7914,-1.7917,-1.804,0,-1.8146,-1.8186,-1.8122,-1.8177,-1.8186,-1.8098,-1.8121,-1.8095,-1.8058,-1.8062,-1.8021,-1.8026,-1.7958,-1.7951,-1.7974,-1.7933,-1.7993,-1.7923,-1.793,-1.7931,-1.7941,-1.812,-1.8164,-1.8282,-1.8055,-1.8057,-1.8059,0,-1.83,-1.8286,-1.8341,-1.829,-1.8292,-1.8314,-1.8297,-1.8301,-1.827,-1.8241,-1.8229,-1.8171,-1.8193,-1.8119,-1.815,-1.8103,-1.8102,-1.8083,-1.8086,-1.8084,-1.8002,-1.8123,-1.8318,-1.8336,-1.8083,-1.8081,-1.8079,0,-1.8453,-1.8448,-1.848,-1.847,-1.8411,-1.8428,-1.8405,-1.837,-1.8367,-1.8352,-1.8349,-1.8338,-1.8333,-1.8326,-1.8266,-1.8218,-1.8304,-1.8225,-1.8281,-1.8282,-1.8303,-1.8302,-1.8501,-1.8303,-1.8303,-1.8302,-1.8302,0,-1.8602,-1.8639,-1.8548,-1.8569,-1.8608,-1.8534,-1.8576,-1.8543,-1.8513,-1.8526,-1.8449,-1.8463,-1.8383,-1.8388,-1.8342,-1.8374,-1.8372,-1.835,-1.8337,-1.8356,-1.8359,-1.8355,-1.8345,-1.8307,-1.8306,-1.8305,-1.8304,0,-1.878,-1.8721,-1.875,-1.8692,-1.8678,-1.871,-1.866,-1.8677,-1.8635,-1.8652,-1.8652,-1.8587,-1.8589,-1.8528,-1.8519,-1.8487,-1.854,-1.8512,-1.855,-1.8541,-1.8601,-1.8596,-1.8803,-1.8826,-1.8615,-1.8617,-1.8619,0,-1.8878,-1.8905,-1.8849,-1.8852,-1.8832,-1.8837,-1.8833,-1.8761,-1.876,-1.8727,-1.8747,-1.8743,-1.8735,-1.8743,-1.8695,-1.8688,-1.8659,-1.8732,-1.8657,-1.8676,-1.866,-1.8659,-1.8661,-1.8748,-1.8751,-1.8753,-1.8755,0,-1.9059,-1.9028,-1.9024,-1.9011,-1.9008,-1.8994,-1.8975,-1.8981,-1.8903,-1.8906,-1.8907,-1.8901,-1.889,-1.8887,-1.887,-1.8846,-1.8788,-1.8779,-1.8791,-1.8811,-1.8832,-1.8821,-1.8593,-1.8774,-1.8772,-1.8771,-1.877,-1.8769,-1.92,-1.9219,-1.9183,-1.9181,-1.9159,-1.9143,-1.9156,-1.9115,-1.9114,-1.9099,-1.9058,-1.9066,-1.9033,-1.9004,-1.8986,-1.8991,-1.8955,-1.8973,-1.8978,-1.8983,-1.8994,-1.8831,-1.8988,-1.8987,-1.8987,-1.8986,-1.8986,0,-1.9376,-1.9348,-1.9348,-1.9323,-1.9322,-1.9266,-1.9242,-1.9245,-1.9253,-1.9228,-1.9222,-1.9222,-1.9219,-1.9171,-1.9161,-1.9175,-1.9148,-1.9175,-1.9173,-1.9168,-1.9028,-1.9017,-1.9197,-1.9197,-1.9197,-1.9197,-1.9197,-1.9197,-1.9468,-1.9497,-1.9462,-1.9481,-1.9452,-1.9459,-1.945,-1.9435,-1.9414,-1.9418,-1.9414,-1.9383,-1.9348,-1.9336,-1.933,-1.9316,-1.9316,-1.9352,-1.9329,-1.9199,-1.9178,-1.9159,-1.9149,-1.9353,-1.9353,-1.9469,-1.947,-1.9471]},{"header":{"parameterUnit":"m.s-1","parameterCategory":1,"la1":30.2991,"la2":30.254,"lo1":-89.0895,"lo2":-89.0444,"dy":0.0017,"dx":0.0017,"nx":28,"ny":28,"refTime":"2023-10-21T21:00:00:Z","depth":0,"parameterNumber":3,"parameterNumberName":"V-component_of_WINDS"},"data":[0,0,0,0,0,0,0,0,0,0,0,0,0,0,0,0,0,0,0,0,0,0,0,0,0,0,0,0,0,0,0,0,0,0,0,0,0,0,0,0,0,0,0,0,0,0,0,0,0,0,0,0,0,0,0,0,0,0,-0.6917,-0.6917,0,-0.6968,-0.6968,-0.6969,-0.6987,-0.6986,-0.6986,-0.6986,-0.7036,-0.7037,-0.7039,0,0,0,0,0,0,0,0,0,0,0,0,0,-0.6833,-0.6835,-0.6917,-0.6918,-0.6918,-0.6967,-0.6968,-0.6969,-0.6987,-0.6986,-0.6986,-0.6986,-0.7035,-0.7037,-0.7039,0,0,0,0,0,0,0,0,0,0,0,0,0,-0.6875,-0.6835,-0.6917,-0.6933,-0.6935,-0.6967,-0.6968,-0.6969,-0.6987,-0.6986,-0.6986,-0.6986,-0.7035,-0.7037,-0.7039,-0.7059,0,0,-0.7046,-0.7047,0,0,0,0,0,0,0,0,-0.6873,-0.6878,-0.693,-0.6932,-0.6934,-0.6971,-0.6957,-0.6999,-0.6987,-0.6967,-0.6986,-0.6986,-0.7014,-0.7018,-0.7028,-0.7061,-0.7063,-0.7046,-0.7048,-0.7049,-0.7049,0,0,0,0,0,0,0,-0.687,-0.6876,-0.6937,-0.6931,-0.6933,-0.6937,-0.6943,-0.6965,-0.6991,-0.6969,-0.697,-0.6976,-0.7015,-0.7026,-0.7029,-0.7064,-0.7046,-0.7048,-0.705,-0.705,-0.7114,-0.7115,0,0,0,0,0,0,-0.6865,-0.6874,-0.6935,-0.6938,-0.6902,-0.6939,-0.6945,-0.6959,-0.6991,-0.6996,-0.6976,-0.6977,-0.7022,-0.7027,-0.7031,-0.7056,-0.7049,-0.7051,-0.7052,-0.7114,-0.7114,-0.7115,0,0,0,0,0,0,-0.6863,-0.687,-0.6933,-0.6907,-0.6915,-0.694,-0.6956,-0.696,-0.6971,-0.6997,-0.7001,-0.6982,-0.7022,-0.7028,-0.7052,-0.7058,-0.7052,-0.7054,-0.7114,-0.7114,-0.7115,-0.7106,0,0,0,0,0,0,-0.686,-0.6869,-0.6877,-0.6907,-0.6916,-0.6954,-0.6956,-0.6961,-0.6975,-0.6976,-0.7004,-0.7008,-0.7022,-0.7048,-0.7054,-0.7061,-0.7055,-0.7113,-0.7114,-0.7114,-0.7106,-0.7106,-0.7106,0,0,0,0,0,-0.6857,-0.6873,-0.6878,-0.6885,-0.6927,-0.6954,-0.6959,-0.6976,-0.6975,-0.6984,-0.7,-0.7007,-0.7056,-0.705,-0.7057,-0.7065,-0.7113,-0.7114,-0.7114,-0.7105,-0.7106,-0.7106,0,0,0,0,0,0,-0.6843,-0.6877,-0.6883,-0.6908,-0.6928,-0.6957,-0.6968,-0.6976,-0.6996,-0.6996,-0.7015,-0.7021,-0.7043,-0.7056,-0.7049,-0.7085,-0.7085,-0.7087,-0.7076,-0.7076,-0.7077,-0.7073,-0.7057,0,0,0,0,0,-0.6843,-0.6862,-0.689,-0.691,-0.692,-0.6942,-0.6954,-0.6965,-0.6986,-0.6995,-0.7013,-0.7033,-0.7052,-0.7065,-0.7085,-0.7107,-0.7113,-0.7116,-0.7116,-0.7116,-0.7118,-0.7131,-0.7132,-0.7117,-0.7117,-0.7117,0,0,-0.6842,-0.6863,-0.6874,-0.6908,-0.6924,-0.6944,-0.6949,-0.6969,-0.6983,-0.6997,-0.7021,-0.7035,-0.7058,-0.7081,-0.7092,-0.7093,-0.7123,-0.7117,-0.7117,-0.7119,-0.7131,-0.7133,-0.7134,-0.7118,-0.7118,-0.7118,0,0,-0.6852,-0.687,-0.6888,-0.6905,-0.693,-0.6945,-0.6949,-0.6977,-0.6987,-0.7011,-0.7022,-0.7038,-0.7072,-0.7088,-0.7101,-0.7116,-0.7123,-0.7121,-0.7123,-0.7135,-0.7136,-0.7137,-0.7142,-0.7144,-0.7123,-0.7123,-0.7123,0,-0.6848,-0.6879,-0.6896,-0.6916,-0.693,-0.6944,-0.6962,-0.6977,-0.7007,-0.7017,-0.7017,-0.7059,-0.7076,-0.7103,-0.7107,-0.7116,-0.7121,-0.7118,-0.7135,-0.7136,-0.7137,-0.7142,-0.7144,-0.7122,-0.7122,-0.7122,-0.7122,0,-0.6873,-0.6893,-0.6905,-0.6934,-0.6949,-0.6968,-0.6988,-0.7001,-0.7011,-0.7025,-0.7049,-0.7069,-0.7093,-0.71,-0.7109,-0.7128,-0.7128,-0.7131,-0.7131,-0.7138,-0.7143,-0.7145,-0.7122,-0.7122,-0.7122,-0.7122,0,0,-0.6875,-0.6914,-0.6918,-0.6931,-0.696,-0.6976,-0.6995,-0.7019,-0.703,-0.705,-0.7066,-0.7094,-0.7097,-0.7111,-0.7122,-0.7133,-0.7143,-0.7135,-0.7136,-0.7136,-0.7165,-0.7162,-0.7164,-0.7148,-0.7148,-0.7149,-0.7163,0,-0.6889,-0.6924,-0.694,-0.6968,-0.6987,-0.7001,-0.7017,-0.7036,-0.705,-0.7067,-0.7082,-0.7101,-0.7104,-0.7113,-0.7124,-0.7139,-0.7149,-0.7139,-0.7163,-0.7163,-0.7157,-0.7167,-0.7165,-0.7177,-0.7165,-0.7165,-0.7166,0,-0.6909,-0.693,-0.696,-0.6986,-0.6995,-0.7009,-0.7032,-0.7049,-0.707,-0.708,-0.7095,-0.7106,-0.7125,-0.7124,-0.7151,-0.7143,-0.7154,-0.7163,-0.7164,-0.7167,-0.7165,-0.7171,-0.7182,-0.7184,-0.7169,-0.7169,-0.7169,0,-0.6908,-0.6943,-0.6966,-0.6977,-0.7008,-0.7018,-0.7031,-0.7053,-0.7066,-0.7085,-0.7094,-0.7116,-0.7127,-0.7143,-0.7159,-0.7157,-0.7184,-0.7184,-0.7192,-0.7192,-0.7198,-0.7197,-0.7211,-0.7204,-0.7204,-0.7204,-0.7204,0,-0.6922,-0.6939,-0.6966,-0.698,-0.7,-0.7018,-0.7037,-0.7051,-0.707,-0.7086,-0.7098,-0.7113,-0.7133,-0.715,-0.7162,-0.7182,-0.7188,-0.7195,-0.7198,-0.7194,-0.7193,-0.7202,-0.7201,-0.7205,-0.7204,-0.7204,-0.7204,0,-0.6924,-0.6942,-0.6968,-0.6995,-0.7002,-0.7016,-0.7039,-0.7053,-0.7067,-0.7087,-0.7093,-0.7114,-0.7135,-0.7152,-0.7179,-0.7188,-0.7209,-0.7212,-0.7202,-0.7203,-0.721,-0.7209,-0.723,-0.7234,-0.7224,-0.7224,-0.7224,0,-0.6932,-0.6946,-0.6975,-0.6987,-0.7,-0.7019,-0.7033,-0.7051,-0.7064,-0.7089,-0.71,-0.7121,-0.714,-0.7172,-0.719,-0.721,-0.7215,-0.722,-0.7218,-0.7213,-0.7215,-0.7214,-0.7215,-0.7221,-0.7221,-0.7221,-0.7221,0,-0.6943,-0.6951,-0.6971,-0.6994,-0.701,-0.7028,-0.7047,-0.7056,-0.7077,-0.7091,-0.7113,-0.7127,-0.7155,-0.7176,-0.7198,-0.7211,-0.7219,-0.7221,-0.7224,-0.722,-0.7214,-0.7217,-0.7203,-0.7221,-0.7221,-0.7221,-0.7221,-0.7221,-0.6948,-0.6961,-0.6984,-0.7005,-0.7021,-0.7038,-0.7052,-0.7068,-0.7087,-0.7111,-0.712,-0.7142,-0.7162,-0.7194,-0.7206,-0.7223,-0.7224,-0.7228,-0.723,-0.723,-0.723,-0.7211,-0.7227,-0.7227,-0.7227,-0.7227,-0.7227,0,-0.6961,-0.6976,-0.6995,-0.7021,-0.7037,-0.7044,-0.7065,-0.7078,-0.7098,-0.7116,-0.7134,-0.7159,-0.7179,-0.7198,-0.7219,-0.7229,-0.7233,-0.7234,-0.7234,-0.7237,-0.7228,-0.7223,-0.7231,-0.7231,-0.7231,-0.7231,-0.7231,-0.7231,-0.6969,-0.6991,-0.7002,-0.7032,-0.7047,-0.7069,-0.7081,-0.7096,-0.7111,-0.7138,-0.7156,-0.7168,-0.7187,-0.7209,-0.7228,-0.7233,-0.724,-0.724,-0.7246,-0.7238,-0.7237,-0.7237,-0.7233,-0.7242,-0.7242,-0.7254,-0.7254,-0.7254]}]]